Weather in Smolino

Russia / Vladimir Oblast     56°04′32″N   41°24′34″E
temp.,
°C
wind,
m/s
gust,
m/s
humid.,
%
clouds,
%
prec.,
mm/h
press.,
hPa
HPBL,
m
2 march, tue
tue200:00+1wsw51392100 0.0 1010686
03:00+1w61392100 0.1 1008737
06:000w51296100 0.0 1005762
09:00+1wnw51196100 0.3 1005721
12:00+1wnw599285 0.4 1004750
15:00+2nw6107986 0.8 10041132
18:00−1wnw4128981 0.1 1004617
21:00−2nw4119288 0.4 1006818
3 march, wed
wed300:00−3nw5119093 0.1 1007836
03:00−5nw5128785 0.1 1009683
06:00−7nw51187100 0.1 1009736
09:00−6nw61285100 0.1 1011682
12:00−4nw597389 0.0 1011862
15:00−2wnw597961 0.1 1011925
18:00−3wnw41194100 0.1 1010622
21:00−3w4129399 0.3 1010675
4 march, thu
thu400:00−3w5119496 0.1 1008668
03:00−3wsw5119198 0.3 1006664
06:00−3sw51295100 0.6 1001663
09:000wsw71394100 2.3 9981040
12:00+1w61186100 0.1 9971050
15:000wsw61196100 0.5 996783
18:00−1nw51096100 1.8 996726
21:00−3wnw41085100 2.5 997686
5 march, fri
fri500:00−6nw399475 0.0 1000353
03:00−8nw389467 0.0 1003274
06:00−10nw26960 0.0 1006174
09:00−9wnw25870 0.0 1008261
12:00−5wnw34760 0.0 1009621
15:00−3wnw11590 0.0 1008828
18:00−7wnw117946 0.0 100821
21:00−8nne118971 0.0 100921
6 march, sat
sat600:00−9ne119199 0.0 100921
03:00−10n129462 0.0 100922
06:00−11nnw229672 0.0 100858
09:00−10nnw238875 0.1 1008222
12:00−6wnw347667 0.0 1009599
15:00−6wnw468081 0.1 1009699
18:00−8nw488899 0.3 1009666
21:00−11wnw249466 0.3 1010134